Springfield, VT

8:44 PM EDT on May 25, 2017 (GMT -0400)
Hartness State

Weather History for KVSF - April, 2014

Change the Weather History Date:

Monday, April 7, 2014

  Actual Average Record
Temperature  
Mean Temperature 40 °F 40 °F  
Max Temperature 54 °F 52 °F 63 °F (1997)
Min Temperature 25 °F 29 °F 10 °F (2003)
Degree Days  
Heating Degree Days 25 25  
Month to date heating degree days 181 182  
Since 1 July heating degree days 7164 6662  
Moisture  
Dew Point 26 °F    
Average Humidity 60    
Maximum Humidity 92    
Minimum Humidity 28    
Precipitation  
Precipitation 0.02 in 0.13 in 0.53 in (2016)
Month to date precipitation 0.37 1.04  
Year to date precipitation 6.08 9.95  
Sea Level Pressure  
Sea Level Pressure 30.12 in    
Wind  
Wind Speed 3 mph (SSE)    
Max Wind Speed 23 mph    
Max Gust Speed 32 mph    
Visibility 10 miles    
Events Rain    
T = Trace of Precipitation, MM = Missing Value Source: NWS Daily Summary

Daily Weather History Graph

Daily Weather History Graph

Search for Another Location

Airport or City:

Trip Planner

Search our weather history database for the weather conditions in past years. The results will help you decide how hot, cold, wet, or windy it might be!

Date:

Astronomy

Apr. 07, 2014 Rise Set
Actual Time 6:21 AM EDT 7:23 PM EDT
Civil Twilight 5:52 AM EDT 7:52 PM EDT
Nautical Twilight 5:17 AM EDT 8:27 PM EDT
Astronomical Twilight 4:41 AM EDT 9:04 PM EDT
Moon 12:10 PM EDT (4/7) 2:03 AM EDT (4/7)
Length of Visible Light 14h 00m
Length of Day
13h 02m
First Quarter, 53% of the Moon is Illuminated
Apr 7
First Quarter
Apr 15
Full
Apr 22
Last Quarter
Apr 29
New
May 6
First Quarter

Hourly Weather History & Observations

Time (EDT) Temp. Windchill Dew Point Humidity Pressure Visibility Wind Dir Wind Speed Gust Speed Precip Events Conditions
12:54 AM 28.0 °F - 25.0 °F 88% 30.20 in 10.0 mi Calm Calm - N/A   Clear
1:54 AM 28.0 °F - 24.1 °F 85% 30.19 in 10.0 mi Calm Calm - N/A   Clear
2:54 AM 28.0 °F - 24.1 °F 85% 30.20 in 10.0 mi Calm Calm - N/A   Clear
3:54 AM 27.0 °F - 24.1 °F 89% 30.21 in 10.0 mi Calm Calm - N/A   Clear
4:54 AM 27.0 °F - 24.1 °F 89% 30.21 in 10.0 mi Calm Calm - N/A   Clear
5:54 AM 25.0 °F - 23.0 °F 92% 30.22 in 10.0 mi Calm Calm - N/A   Clear
6:54 AM 26.1 °F - 24.1 °F 92% 30.22 in 10.0 mi Calm Calm - N/A   Clear
7:54 AM 28.9 °F - 26.1 °F 89% 30.24 in 10.0 mi Calm Calm - N/A   Clear
8:54 AM 36.0 °F - 28.0 °F 73% 30.24 in 10.0 mi Calm Calm - N/A   Clear
9:54 AM 42.1 °F - 27.0 °F 55% 30.23 in 10.0 mi Calm Calm - N/A   Clear
10:54 AM 48.9 °F - 26.1 °F 41% 30.20 in 10.0 mi Calm Calm - N/A   Clear
11:54 AM 53.1 °F - 23.0 °F 31% 30.18 in 10.0 mi SSE 10.4 mph - N/A   Clear
12:54 PM 54.0 °F - 21.9 °F 29% 30.17 in 10.0 mi South 10.4 mph - N/A   Clear
1:54 PM 54.0 °F - 21.9 °F 29% 30.14 in 10.0 mi South 6.9 mph 18.4 mph N/A   Clear
2:54 PM 54.0 °F - 23.0 °F 30% 30.09 in 10.0 mi Variable 4.6 mph - N/A   Clear
4:54 PM 54.0 °F - 24.1 °F 31% 30.08 in 10.0 mi SSW 5.8 mph - N/A   Mostly Cloudy
5:54 PM 53.1 °F - 24.1 °F 32% 30.05 in 10.0 mi Calm Calm - N/A   Overcast
6:54 PM 50.0 °F - 25.0 °F 38% 30.04 in 10.0 mi Calm Calm - N/A   Overcast
7:54 PM 44.1 °F 42.5 °F 28.9 °F 55% 30.01 in 10.0 mi NW 3.5 mph - N/A   Overcast
8:54 PM 45.0 °F - 27.0 °F 49% 29.99 in 10.0 mi Calm Calm - 0.00 in   Overcast
9:54 PM 46.9 °F - 28.0 °F 48% 29.99 in 10.0 mi Calm Calm - 0.00 in Rain Light Rain
10:54 PM 45.0 °F 40.6 °F 30.9 °F 58% 29.94 in 10.0 mi SE 8.1 mph 20.7 mph 0.01 in Rain Light Rain
11:40 PM 43.0 °F 39.5 °F 35.1 °F 74% 29.90 in 10.0 mi SE 5.8 mph - 0.01 in Rain Light Rain
11:54 PM 43.0 °F 40.3 °F 35.1 °F 74% 29.89 in 10.0 mi SE 4.6 mph - 0.01 in Rain Light Rain